Location: Heidgraben
(53.7081°N, 9.6576°E)
Time: 04:31:59
(UTC+00:00)

SL-16 R/B - Pass Details

Date: 05 July 2020
Orbit: 985 x 1006 km, 99.5° (Epoch: 06 August)

Event Time Altitude Azimuth Distance (km) Brightness Sun altitude
Exits shadow 23:31:34 - 129° (SE) 3,632 5.1 -13.6°
Reaches altitude 10° 23:33:59 10° 122° (ESE) 2,769 4.6 -13.6°
Maximum altitude 23:39:36 37° 58° (ENE) 1,505 3.8 -13.6°
Drops below altitude 10° 23:45:17 10° 353° (N) 2,794 6.3 -13.5°
Sets 23:47:56 0° 346° (NNW) 3,749 7.0 -13.5°
